Datum;Zeit;Leistung;Tagesertrag;Temperatur WR
01.01.2021;08:55:00;127;0;27
01.01.2021;09:05:00;268;0;28
01.01.2021;09:15:00;421;0.1;28
01.01.2021;09:25:00;393;0.1;29
01.01.2021;09:35:00;521;0.2;29
01.01.2021;09:45:00;521;0.3;29
01.01.2021;09:55:00;754;0.4;30
01.01.2021;10:05:00;840;0.6;30
01.01.2021;10:15:00;1181;0.7;30
01.01.2021;10:25:00;1636;1.0;30
01.01.2021;10:35:00;1684;1.3;31
01.01.2021;10:45:00;1339;1.5;31
01.01.2021;10:55:00;1176;1.7;31
01.01.2021;11:05:00;1047;1.9;31
01.01.2021;11:15:00;1151;2.1;32
01.01.2021;11:25:00;1061;2.3;32
01.01.2021;11:35:00;804;2.4;32
01.01.2021;11:45:00;659;2.5;32
01.01.2021;11:55:00;498;2.6;32
01.01.2021;12:05:00;493;2.7;32
01.01.2021;12:15:00;471;2.8;32
01.01.2021;12:25:00;346;2.8;32
01.01.2021;12:35:00;372;2.9;32
01.01.2021;12:45:00;530;3.0;32
01.01.2021;12:55:00;524;3.1;32
01.01.2021;13:05:00;502;3.1;32
01.01.2021;13:15:00;491;3.2;32
01.01.2021;13:25:00;527;3.3;32
01.01.2021;13:35:00;412;3.4;32
01.01.2021;13:45:00;421;3.5;32
01.01.2021;13:55:00;380;3.5;32
01.01.2021;14:05:00;439;3.6;32
01.01.2021;14:15:00;333;3.6;32
01.01.2021;14:25:00;361;3.7;32
01.01.2021;14:35:00;456;3.8;32
01.01.2021;14:45:00;362;3.8;32
01.01.2021;14:55:00;407;3.9;32
01.01.2021;15:05:00;403;4.0;32
01.01.2021;15:15:00;247;4.0;32
01.01.2021;15:25:00;204;4.1;32
01.01.2021;15:35:00;175;4.1;32
01.01.2021;15:45:00;191;4.1;32
01.01.2021;15:55:00;182;4.1;32
01.01.2021;16:05:00;130;4.2;32
01.01.2021;16:15:00;111;4.2;32
01.01.2021;16:25:00;97;4.2;32
01.01.2021;16:35:00;91;4.2;32
01.01.2021;16:45:00;88;4.2;32
02.01.2021;08:45:00;150;0;26
02.01.2021;08:55:00;136;0;27
02.01.2021;09:05:00;180;0;28
02.01.2021;09:15:00;237;0.1;29
02.01.2021;09:25:00;156;0.1;29
02.01.2021;09:35:00;176;0.1;29
02.01.2021;09:45:00;195;0.1;30
02.01.2021;09:55:00;253;0.2;30
02.01.2021;10:05:00;283;0.2;30
02.01.2021;10:15:00;382;0.3;30
02.01.2021;10:25:00;311;0.3;31
02.01.2021;10:35:00;364;0.4;31
02.01.2021;10:45:00;402;0.5;31
02.01.2021;10:55:00;411;0.5;31
02.01.2021;11:05:00;307;0.6;31
02.01.2021;11:15:00;321;0.6;31
02.01.2021;11:25:00;397;0.7;31
02.01.2021;11:35:00;528;0.8;32
02.01.2021;11:45:00;655;0.9;32
02.01.2021;11:55:00;863;1.0;32
02.01.2021;12:05:00;1001;1.2;32
02.01.2021;12:15:00;734;1.3;32
02.01.2021;12:25:00;760;1.4;32
02.01.2021;12:35:00;632;1.5;32
02.01.2021;12:45:00;367;1.6;32
02.01.2021;12:55:00;432;1.7;32
02.01.2021;13:05:00;334;1.7;32
02.01.2021;13:15:00;238;1.8;32
02.01.2021;13:25:00;210;1.8;32
02.01.2021;13:35:00;200;1.8;32
02.01.2021;13:45:00;243;1.9;32
02.01.2021;13:55:00;358;1.9;32
02.01.2021;14:05:00;341;2.0;32
02.01.2021;14:15:00;290;2.1;32
02.01.2021;14:25:00;307;2.1;32
02.01.2021;14:35:00;239;2.1;32
02.01.2021;14:45:00;171;2.2;32
02.01.2021;14:55:00;178;2.2;32
02.01.2021;15:05:00;159;2.2;32
02.01.2021;15:15:00;167;2.3;32
02.01.2021;15:25:00;159;2.3;33
02.01.2021;15:35:00;120;2.3;33
02.01.2021;15:45:00;148;2.3;33
02.01.2021;15:55:00;133;2.4;33
02.01.2021;16:05:00;110;2.4;33
02.01.2021;16:15:00;105;2.4;33
02.01.2021;16:25:00;106;2.4;33
02.01.2021;16:35:00;93;2.4;33
02.01.2021;16:45:00;90;2.4;33
03.01.2021;09:40:00;308;0.1;30
03.01.2021;09:50:00;435;0.2;30
03.01.2021;10:00:00;561;0.3;30
03.01.2021;10:10:00;663;0.4;30
03.01.2021;10:20:00;853;0.5;31
03.01.2021;10:30:00;926;0.7;31
03.01.2021;10:40:00;574;0.8;31
03.01.2021;10:50:00;372;0.8;31
03.01.2021;11:00:00;459;0.9;31
03.01.2021;11:10:00;577;1.0;32
03.01.2021;11:20:00;341;1.1;32
03.01.2021;11:30:00;274;1.1;32
03.01.2021;11:40:00;319;1.2;32
03.01.2021;11:50:00;337;1.2;32
03.01.2021;12:00:00;336;1.3;32
03.01.2021;12:10:00;396;1.3;32
03.01.2021;12:20:00;470;1.4;32
03.01.2021;12:30:00;512;1.5;32
03.01.2021;12:40:00;627;1.6;32
03.01.2021;12:50:00;870;1.7;32
03.01.2021;13:00:00;1022;1.9;32
03.01.2021;13:10:00;726;2.0;32
03.01.2021;13:20:00;652;2.1;33
03.01.2021;13:30:00;688;2.2;33
03.01.2021;13:40:00;799;2.4;33
03.01.2021;13:50:00;756;2.5;33
03.01.2021;14:00:00;726;2.6;33
03.01.2021;14:10:00;657;2.7;33
03.01.2021;14:20:00;649;2.8;33
03.01.2021;14:30:00;660;3.0;33
03.01.2021;14:40:00;609;3.1;33
03.01.2021;14:50:00;658;3.2;33
03.01.2021;15:00:00;688;3.3;33
03.01.2021;15:10:00;626;3.4;33
03.01.2021;15:20:00;415;3.5;33
03.01.2021;15:30:00;251;3.5;33
03.01.2021;15:40:00;206;3.5;33
03.01.2021;15:50:00;161;3.6;33
03.01.2021;16:00:00;136;3.6;33
03.01.2021;16:10:00;125;3.6;33
03.01.2021;16:20:00;120;3.6;33
03.01.2021;16:30:00;109;3.7;33
03.01.2021;16:40:00;94;3.7;33
03.01.2021;16:50:00;89;3.7;33
04.01.2021;08:55:00;120;0;28
04.01.2021;09:05:00;210;0;28
04.01.2021;09:15:00;307;0;28
04.01.2021;09:25:00;274;0.1;29
04.01.2021;09:35:00;338;0.1;29
04.01.2021;09:45:00;420;0.2;30
04.01.2021;09:55:00;417;0.3;30
04.01.2021;10:05:00;445;0.4;30
04.01.2021;10:15:00;561;0.4;30
04.01.2021;10:25:00;489;0.5;30
04.01.2021;10:35:00;449;0.6;31
04.01.2021;10:45:00;413;0.7;31
04.01.2021;10:55:00;411;0.7;31
04.01.2021;11:05:00;422;0.8;31
04.01.2021;11:15:00;484;0.9;31
04.01.2021;11:25:00;515;1.0;31
04.01.2021;11:35:00;460;1.1;31
04.01.2021;11:45:00;529;1.1;31
04.01.2021;11:55:00;611;1.2;31
04.01.2021;12:05:00;641;1.3;32
04.01.2021;12:15:00;414;1.4;32
04.01.2021;12:25:00;536;1.5;32
04.01.2021;12:35:00;523;1.6;32
04.01.2021;12:45:00;534;1.7;32
04.01.2021;12:55:00;520;1.8;32
04.01.2021;13:05:00;384;1.8;32
04.01.2021;13:15:00;359;1.9;32
04.01.2021;13:25:00;329;1.9;32
04.01.2021;13:35:00;363;2.0;32
04.01.2021;13:45:00;413;2.1;32
04.01.2021;13:55:00;395;2.1;32
04.01.2021;14:05:00;568;2.2;32
04.01.2021;14:15:00;487;2.3;32
04.01.2021;14:25:00;494;2.4;32
04.01.2021;14:35:00;458;2.5;32
04.01.2021;14:45:00;379;2.5;32
04.01.2021;14:55:00;361;2.6;32
04.01.2021;15:05:00;267;2.6;32
04.01.2021;15:15:00;247;2.7;32
04.01.2021;15:25:00;209;2.7;32
04.01.2021;15:35:00;226;2.8;32
04.01.2021;15:45:00;179;2.8;32
04.01.2021;15:55:00;106;2.8;32
04.01.2021;16:05:00;122;2.8;32
04.01.2021;16:15:00;113;2.8;32
04.01.2021;16:25:00;110;2.9;32
04.01.2021;16:35:00;96;2.9;32
05.01.2021;08:55:00;79;0;26
05.01.2021;09:05:00;103;0;27
05.01.2021;09:15:00;154;0;28
05.01.2021;09:25:00;156;0;28
05.01.2021;09:35:00;197;0.1;29
05.01.2021;09:45:00;216;0.1;29
05.01.2021;09:55:00;218;0.1;29
05.01.2021;10:05:00;231;0.2;29
05.01.2021;10:15:00;234;0.2;30
05.01.2021;10:25:00;268;0.2;30
05.01.2021;10:35:00;327;0.3;30
05.01.2021;10:45:00;316;0.3;30
05.01.2021;10:55:00;301;0.4;30
05.01.2021;11:05:00;373;0.5;30
05.01.2021;11:15:00;357;0.5;31
05.01.2021;11:25:00;355;0.6;31
05.01.2021;11:35:00;394;0.6;31
05.01.2021;11:45:00;460;0.7;31
05.01.2021;11:55:00;433;0.8;31
05.01.2021;12:05:00;477;0.9;31
05.01.2021;12:15:00;462;0.9;31
05.01.2021;12:25:00;453;1.0;31
05.01.2021;12:25:00;453;1.0;31
05.01.2021;12:35:00;487;1.1;31
05.01.2021;12:45:00;515;1.2;31
05.01.2021;12:55:00;493;1.3;31
05.01.2021;13:05:00;565;1.4;31
05.01.2021;13:15:00;642;1.5;31
05.01.2021;13:25:00;573;1.6;31
05.01.2021;13:35:00;490;1.6;31
05.01.2021;13:45:00;483;1.7;31
05.01.2021;13:55:00;457;1.8;32
05.01.2021;14:05:00;388;1.9;32
05.01.2021;14:15:00;378;1.9;32
05.01.2021;14:25:00;356;2.0;32
05.01.2021;14:35:00;370;2.0;32
05.01.2021;14:45:00;358;2.1;32
05.01.2021;14:55:00;307;2.2;32
05.01.2021;15:05:00;255;2.2;32
05.01.2021;15:15:00;220;2.2;32
05.01.2021;15:25:00;193;2.3;32
05.01.2021;15:35:00;157;2.3;32
05.01.2021;15:45:00;135;2.3;32
05.01.2021;15:55:00;49;2.3;32
05.01.2021;16:05:00;115;2.4;32
05.01.2021;16:15:00;99;2.4;32
05.01.2021;16:25:00;86;2.4;32
06.01.2021;09:15:00;81;0;27
06.01.2021;09:25:00;144;0;28
06.01.2021;09:35:00;153;0;28
06.01.2021;09:45:00;146;0;28
06.01.2021;09:55:00;148;0.1;29
06.01.2021;10:05:00;176;0.1;29
06.01.2021;10:15:00;171;0.1;29
06.01.2021;10:25:00;170;0.1;29
06.01.2021;10:35:00;179;0.2;30
06.01.2021;10:45:00;173;0.2;30
06.01.2021;10:55:00;175;0.2;30
06.01.2021;11:05:00;175;0.3;30
06.01.2021;11:15:00;192;0.3;30
06.01.2021;11:25:00;195;0.3;30
06.01.2021;11:35:00;185;0.3;31
06.01.2021;11:45:00;188;0.4;31
06.01.2021;11:55:00;191;0.4;31
06.01.2021;12:05:00;200;0.4;31
06.01.2021;12:15:00;204;0.5;31
06.01.2021;12:25:00;208;0.5;31
06.01.2021;12:35:00;205;0.5;31
06.01.2021;12:45:00;210;0.6;31
06.01.2021;12:55:00;205;0.6;31
06.01.2021;13:05:00;225;0.6;31
06.01.2021;13:15:00;245;0.7;31
06.01.2021;13:25:00;273;0.7;31
06.01.2021;13:35:00;242;0.8;31
06.01.2021;13:45:00;217;0.8;31
06.01.2021;13:55:00;198;0.8;31
06.01.2021;14:05:00;184;0.9;31
06.01.2021;14:15:00;171;0.9;31
06.01.2021;14:25:00;164;0.9;31
06.01.2021;14:35:00;159;1.0;31
06.01.2021;14:45:00;148;1.0;31
06.01.2021;14:55:00;134;1.0;31
06.01.2021;15:05:00;124;1.0;32
06.01.2021;15:15:00;116;1.0;32
06.01.2021;15:25:00;111;1.1;32
06.01.2021;15:35:00;107;1.1;32
06.01.2021;15:45:00;103;1.1;32
06.01.2021;15:55:00;98;1.1;32
07.01.2021;09:50:00;125;0;27
07.01.2021;10:00:00;139;0;28
07.01.2021;10:10:00;156;0;28
07.01.2021;10:20:00;164;0;28
07.01.2021;10:30:00;169;0.1;29
07.01.2021;10:40:00;183;0.1;29
07.01.2021;10:50:00;173;0.1;29
07.01.2021;11:00:00;168;0.1;29
07.01.2021;11:10:00;178;0.2;30
07.01.2021;11:20:00;193;0.2;30
07.01.2021;11:30:00;197;0.2;30
07.01.2021;11:40:00;207;0.3;30
07.01.2021;11:50:00;208;0.3;30
07.01.2021;12:00:00;203;0.3;30
07.01.2021;12:10:00;219;0.4;31
07.01.2021;12:20:00;251;0.4;31
07.01.2021;12:30:00;242;0.5;31
07.01.2021;12:40:00;264;0.5;31
07.01.2021;12:50:00;256;0.5;31
07.01.2021;13:00:00;239;0.6;31
07.01.2021;13:10:00;238;0.6;31
07.01.2021;13:20:00;251;0.7;31
07.01.2021;13:30:00;285;0.7;31
07.01.2021;13:40:00;299;0.8;31
07.01.2021;13:50:00;286;0.8;31
07.01.2021;14:00:00;263;0.8;31
07.01.2021;14:10:00;249;0.9;31
07.01.2021;14:20:00;258;0.9;31
07.01.2021;14:30:00;252;1.0;31
07.01.2021;14:40:00;233;1.0;31
07.01.2021;14:50:00;215;1.1;31
07.01.2021;15:00:00;208;1.1;31
07.01.2021;15:10:00;191;1.1;31
07.01.2021;15:20:00;170;1.1;31
07.01.2021;15:30:00;154;1.2;31
07.01.2021;15:40:00;146;1.2;32
07.01.2021;15:50:00;115;1.2;32
07.01.2021;16:00:00;123;1.2;32
07.01.2021;16:10:00;114;1.3;32
07.01.2021;16:20:00;102;1.3;32
07.01.2021;16:30:00;95;1.3;32
08.01.2021;09:20:00;81;0;27
08.01.2021;09:30:00;134;0;28
08.01.2021;09:40:00;143;0;28
08.01.2021;09:50:00;148;0;28
08.01.2021;10:00:00;152;0.1;29
08.01.2021;10:10:00;164;0.1;29
08.01.2021;10:20:00;182;0.1;29
08.01.2021;10:30:00;195;0.1;29
08.01.2021;10:40:00;211;0.2;30
08.01.2021;10:50:00;224;0.2;30
08.01.2021;11:00:00;224;0.3;30
08.01.2021;11:10:00;232;0.3;30
08.01.2021;11:20:00;232;0.3;30
08.01.2021;11:30:00;238;0.4;30
08.01.2021;11:40:00;240;0.4;30
08.01.2021;11:50:00;251;0.4;31
08.01.2021;12:00:00;251;0.5;31
08.01.2021;12:10:00;256;0.5;31
08.01.2021;12:20:00;252;0.6;31
08.01.2021;12:30:00;254;0.6;31
08.01.2021;12:40:00;263;0.7;31
08.01.2021;12:50:00;277;0.7;31
08.01.2021;13:00:00;272;0.8;31
08.01.2021;13:10:00;291;0.8;31
08.01.2021;13:20:00;299;0.8;31
08.01.2021;13:30:00;290;0.9;31
08.01.2021;13:40:00;305;0.9;31
08.01.2021;13:50:00;312;1.0;31
08.01.2021;14:00:00;289;1.0;31
08.01.2021;14:10:00;262;1.1;31
08.01.2021;14:20:00;248;1.1;31
08.01.2021;14:30:00;229;1.2;31
08.01.2021;14:40:00;187;1.2;32
08.01.2021;14:50:00;159;1.2;32
08.01.2021;15:00:00;134;1.3;32
08.01.2021;15:10:00;137;1.3;32
08.01.2021;15:20:00;164;1.3;32
08.01.2021;15:30:00;158;1.3;32
08.01.2021;15:40:00;142;1.4;31
08.01.2021;15:50:00;132;1.4;31
08.01.2021;16:00:00;129;1.4;31
08.01.2021;16:10:00;122;1.4;31
08.01.2021;16:20:00;115;1.4;31
08.01.2021;16:30:00;106;1.5;31
08.01.2021;16:40:00;99;1.5;31
08.01.2021;16:50:00;93;1.5;31
08.01.2021;17:00:00;92;1.5;31
09.01.2021;09:30:00;134;0;28
09.01.2021;09:40:00;151;0;28
09.01.2021;09:50:00;221;0;28
09.01.2021;10:00:00;268;0.1;29
09.01.2021;10:10:00;275;0.1;29
09.01.2021;10:20:00;268;0.2;29
09.01.2021;10:30:00;267;0.2;29
09.01.2021;10:40:00;345;0.3;30
09.01.2021;10:50:00;419;0.3;30
09.01.2021;11:00:00;352;0.4;30
09.01.2021;11:10:00;431;0.4;30
09.01.2021;11:20:00;520;0.5;30
09.01.2021;11:30:00;542;0.6;30
09.01.2021;11:40:00;499;0.7;31
09.01.2021;11:50:00;429;0.8;31
09.01.2021;12:00:00;433;0.8;31
09.01.2021;12:10:00;427;0.9;31
09.01.2021;12:20:00;418;1.0;31
09.01.2021;12:30:00;524;1.1;31
09.01.2021;12:40:00;579;1.2;31
09.01.2021;12:50:00;670;1.3;31
09.01.2021;13:00:00;514;1.4;31
09.01.2021;13:10:00;399;1.5;31
09.01.2021;13:20:00;406;1.5;31
09.01.2021;13:30:00;521;1.6;32
09.01.2021;13:40:00;308;1.7;32
09.01.2021;13:50:00;323;1.7;32
09.01.2021;14:00:00;257;1.8;32
09.01.2021;14:10:00;273;1.8;32
09.01.2021;14:20:00;258;1.8;32
09.01.2021;14:30:00;240;1.9;32
09.01.2021;14:40:00;231;1.9;32
09.01.2021;14:50:00;207;2.0;32
09.01.2021;15:00:00;195;2.0;32
09.01.2021;15:10:00;188;2.0;32
09.01.2021;15:20:00;192;2.1;32
09.01.2021;15:30:00;176;2.1;32
09.01.2021;15:40:00;172;2.1;32
09.01.2021;15:50:00;139;2.1;32
09.01.2021;16:00:00;134;2.2;32
09.01.2021;16:10:00;0;2.2;32
10.01.2021;09:20:00;81;0;28
10.01.2021;09:30:00;138;0;28
10.01.2021;09:40:00;152;0;28
10.01.2021;09:50:00;168;0;29
10.01.2021;10:00:00;180;0.1;29
10.01.2021;10:10:00;205;0.1;29
10.01.2021;10:20:00;252;0.1;30
10.01.2021;10:30:00;294;0.2;30
10.01.2021;10:40:00;245;0.2;30
10.01.2021;10:50:00;211;0.3;30
10.01.2021;11:00:00;396;0.3;30
10.01.2021;11:10:00;525;0.4;30
10.01.2021;11:20:00;525;0.5;31
10.01.2021;11:30:00;506;0.6;31
10.01.2021;11:40:00;423;0.6;31
10.01.2021;11:50:00;513;0.7;31
10.01.2021;12:00:00;679;0.8;31
10.01.2021;12:10:00;715;0.9;31
10.01.2021;12:20:00;578;1.0;31
10.01.2021;12:30:00;769;1.2;31
10.01.2021;12:40:00;770;1.3;31
10.01.2021;12:50:00;782;1.4;32
10.01.2021;13:00:00;774;1.5;32
10.01.2021;13:10:00;772;1.7;32
10.01.2021;13:20:00;696;1.8;32
10.01.2021;13:30:00;611;1.9;32
10.01.2021;13:40:00;436;2.0;32
10.01.2021;13:50:00;374;2.0;32
10.01.2021;14:00:00;627;2.1;32
10.01.2021;14:10:00;562;2.2;32
10.01.2021;14:20:00;460;2.3;32
10.01.2021;14:30:00;420;2.4;32
10.01.2021;14:40:00;243;2.4;32
10.01.2021;14:50:00;212;2.5;32
10.01.2021;15:00:00;201;2.5;32
10.01.2021;15:10:00;189;2.5;32
10.01.2021;15:20:00;164;2.6;32
10.01.2021;15:30:00;160;2.6;32
10.01.2021;15:40:00;151;2.6;32
10.01.2021;15:50:00;148;2.6;32
10.01.2021;16:00:00;147;2.7;32
10.01.2021;16:10:00;159;2.7;32
10.01.2021;16:20:00;106;2.7;32
10.01.2021;16:30:00;106;2.7;32
10.01.2021;16:40:00;98;2.7;32
10.01.2021;16:50:00;95;2.8;32
10.01.2021;17:00:00;0;2.8;0
10.01.2021;17:10:00;0;2.8;0
11.01.2021;09:15:00;0;0;27
11.01.2021;09:25:00;91;0;27
11.01.2021;09:35:00;128;0;28
11.01.2021;09:45:00;139;0;28
11.01.2021;09:55:00;150;0;28
11.01.2021;10:05:00;169;0.1;29
11.01.2021;10:15:00;183;0.1;29
11.01.2021;10:25:00;196;0.1;29
11.01.2021;10:35:00;210;0.1;29
11.01.2021;10:45:00;244;0.2;30
11.01.2021;10:55:00;256;0.2;30
11.01.2021;11:05:00;267;0.3;30
11.01.2021;11:15:00;315;0.3;30
11.01.2021;11:25:00;372;0.4;30
11.01.2021;11:35:00;390;0.4;30
11.01.2021;11:45:00;418;0.5;30
11.01.2021;11:55:00;456;0.6;31
11.01.2021;12:05:00;401;0.7;31
11.01.2021;12:15:00;425;0.7;31
11.01.2021;12:25:00;523;0.8;31
11.01.2021;12:35:00;528;0.9;31
11.01.2021;12:45:00;664;1.0;31
11.01.2021;12:55:00;921;1.1;31
11.01.2021;13:05:00;905;1.3;31
11.01.2021;13:15:00;792;1.4;31
11.01.2021;13:25:00;685;1.5;31
11.01.2021;13:35:00;843;1.7;31
11.01.2021;13:45:00;803;1.8;31
11.01.2021;13:55:00;781;1.9;31
11.01.2021;14:05:00;756;2.1;32
11.01.2021;14:15:00;698;2.2;32
11.01.2021;14:25:00;669;2.3;32
11.01.2021;14:35:00;582;2.4;32
11.01.2021;14:45:00;560;2.5;32
11.01.2021;14:55:00;487;2.6;32
11.01.2021;15:05:00;423;2.7;32
11.01.2021;15:15:00;381;2.7;32
11.01.2021;15:25:00;349;2.8;32
11.01.2021;15:35:00;308;2.8;32
11.01.2021;15:45:00;295;2.9;32
11.01.2021;15:55:00;265;2.9;32
11.01.2021;16:05:00;235;3.0;32
11.01.2021;16:15:00;205;3.0;32
11.01.2021;16:25:00;181;3.0;32
11.01.2021;16:35:00;150;3.1;32
11.01.2021;16:45:00;124;3.1;32
11.01.2021;16:55:00;105;3.1;32
12.01.2021;08:45:00;0;0;0
12.01.2021;08:55:00;0;0;27
12.01.2021;09:05:00;172;0;27
12.01.2021;09:15:00;110;0;28
12.01.2021;09:25:00;194;0;28
12.01.2021;09:35:00;207;0.1;28
12.01.2021;09:45:00;235;0.1;29
12.01.2021;09:55:00;208;0.1;29
12.01.2021;10:05:00;257;0.2;29
12.01.2021;10:15:00;247;0.2;29
12.01.2021;10:25:00;271;0.3;30
12.01.2021;10:35:00;266;0.3;30
12.01.2021;10:45:00;259;0.3;30
12.01.2021;10:55:00;293;0.4;30
12.01.2021;11:05:00;343;0.4;30
12.01.2021;11:15:00;357;0.5;30
12.01.2021;11:25:00;302;0.6;30
12.01.2021;11:35:00;310;0.6;31
12.01.2021;11:45:00;334;0.7;31
12.01.2021;11:55:00;307;0.7;31
12.01.2021;12:05:00;306;0.8;31
12.01.2021;12:15:00;329;0.8;31
12.01.2021;12:25:00;349;0.9;31
12.01.2021;12:35:00;380;0.9;31
12.01.2021;12:45:00;408;1.0;31
12.01.2021;12:55:00;431;1.1;31
12.01.2021;13:05:00;387;1.1;31
12.01.2021;13:15:00;383;1.2;31
12.01.2021;13:25:00;399;1.3;31
12.01.2021;13:35:00;404;1.3;32
12.01.2021;13:45:00;402;1.4;32
12.01.2021;13:55:00;460;1.5;32
12.01.2021;14:05:00;489;1.6;32
12.01.2021;14:15:00;481;1.6;32
12.01.2021;14:25:00;395;1.7;32
12.01.2021;14:35:00;301;1.8;32
12.01.2021;14:45:00;239;1.8;32
12.01.2021;14:55:00;183;1.8;32
12.01.2021;15:05:00;143;1.9;32
12.01.2021;15:15:00;117;1.9;32
12.01.2021;15:25:00;63;1.9;32
13.01.2021;08:35:00;130;0;26
13.01.2021;08:45:00;124;0;27
13.01.2021;08:55:00;170;0;28
13.01.2021;09:05:00;203;0;28
13.01.2021;09:15:00;203;0.1;28
13.01.2021;09:25:00;247;0.1;29
13.01.2021;09:35:00;290;0.2;29
13.01.2021;09:45:00;385;0.2;29
13.01.2021;09:55:00;441;0.3;30
13.01.2021;10:05:00;735;0.4;30
13.01.2021;10:15:00;675;0.5;30
13.01.2021;10:25:00;497;0.6;30
13.01.2021;10:35:00;918;0.7;30
13.01.2021;10:45:00;683;0.9;31
13.01.2021;10:55:00;683;1.0;31
13.01.2021;11:05:00;710;1.1;31
13.01.2021;11:15:00;768;1.2;31
13.01.2021;11:25:00;757;1.4;31
13.01.2021;11:35:00;833;1.5;31
13.01.2021;11:45:00;840;1.6;31
13.01.2021;11:55:00;913;1.8;32
13.01.2021;12:05:00;946;1.9;32
13.01.2021;12:15:00;990;2.1;32
13.01.2021;12:25:00;1053;2.3;32
13.01.2021;12:35:00;1009;2.4;32
13.01.2021;12:45:00;1067;2.6;32
13.01.2021;12:55:00;1126;2.8;32
13.01.2021;13:05:00;1167;3.0;32
13.01.2021;13:15:00;1174;3.2;32
13.01.2021;13:25:00;1139;3.4;32
13.01.2021;13:35:00;1202;3.6;32
13.01.2021;13:45:00;1359;3.8;33
13.01.2021;13:55:00;1343;4.0;33
13.01.2021;14:05:00;1188;4.2;33
13.01.2021;14:15:00;1296;4.4;33
13.01.2021;14:25:00;1253;4.6;33
13.01.2021;14:35:00;1185;4.8;33
13.01.2021;14:45:00;1027;5.0;33
13.01.2021;14:55:00;923;5.1;33
13.01.2021;15:05:00;859;5.3;33
13.01.2021;15:15:00;664;5.4;33
13.01.2021;15:25:00;561;5.5;33
13.01.2021;15:35:00;562;5.6;33
13.01.2021;15:45:00;484;5.7;33
13.01.2021;15:55:00;389;5.7;33
13.01.2021;16:05:00;288;5.8;33
13.01.2021;16:15:00;211;5.8;33
13.01.2021;16:25:00;132;5.9;33
13.01.2021;16:35:00;107;5.9;33
13.01.2021;16:45:00;92;5.9;33
13.01.2021;16:55:00;89;5.9;32
13.01.2021;17:05:00;87;5.9;32
22.01.2021;11:25:00;0;0;28
22.01.2021;11:35:00;56;0;28
22.01.2021;11:45:00;137;0;28
22.01.2021;11:55:00;103;0;28
22.01.2021;12:05:00;127;0;29
22.01.2021;12:15:00;110;0;29
22.01.2021;12:25:00;118;0.1;29
23.01.2021;12:55:00;0;0;28
23.01.2021;13:05:00;0;0;29
23.01.2021;13:15:00;0;0;29
23.01.2021;13:25:00;49;0;29
23.01.2021;13:35:00;116;0;29
23.01.2021;13:45:00;107;0;29
23.01.2021;13:55:00;110;0;29
23.01.2021;14:05:00;110;0;30
23.01.2021;14:15:00;106;0;30
23.01.2021;14:25:00;108;0.1;30
23.01.2021;14:35:00;145;0.1;30
23.01.2021;14:45:00;142;0.1;30
23.01.2021;14:55:00;123;0.1;31
23.01.2021;15:05:00;89;0.1;31
23.01.2021;15:15:00;90;0.2;31
23.01.2021;15:25:00;97;0.2;31
23.01.2021;15:35:00;89;0.2;31
23.01.2021;15:45:00;90;0.2;31
23.01.2021;15:55:00;88;0.2;31
24.01.2021;09:55:00;0;0;28
24.01.2021;10:05:00;105;0;28
24.01.2021;10:15:00;136;0;28
24.01.2021;10:25:00;142;0;29
24.01.2021;10:35:00;148;0;29
24.01.2021;10:45:00;153;0.1;29
24.01.2021;10:55:00;159;0.1;29
24.01.2021;11:05:00;164;0.1;30
24.01.2021;11:15:00;167;0.1;30
24.01.2021;11:25:00;170;0.2;30
24.01.2021;11:35:00;175;0.2;30
24.01.2021;11:45:00;177;0.2;30
24.01.2021;11:55:00;181;0.3;30
24.01.2021;12:05:00;181;0.3;31
24.01.2021;12:15:00;184;0.3;31
24.01.2021;12:25:00;167;0.3;31
24.01.2021;12:35:00;187;0.4;31
24.01.2021;12:45:00;185;0.4;31
24.01.2021;12:55:00;185;0.4;31
24.01.2021;13:05:00;182;0.5;31
24.01.2021;13:15:00;183;0.5;31
24.01.2021;13:25:00;184;0.5;31
24.01.2021;13:35:00;178;0.6;31
24.01.2021;13:45:00;179;0.6;32
24.01.2021;13:55:00;176;0.6;32
24.01.2021;14:05:00;174;0.7;32
24.01.2021;14:15:00;168;0.7;32
24.01.2021;14:25:00;162;0.7;32
24.01.2021;14:35:00;156;0.7;32
24.01.2021;14:45:00;151;0.8;32
24.01.2021;14:55:00;145;0.8;32
24.01.2021;15:05:00;129;0.8;32
24.01.2021;15:15:00;0;0.8;32
24.01.2021;15:25:00;0;0.8;32
24.01.2021;15:35:00;0;0.8;31
24.01.2021;15:45:00;0;0.8;31
24.01.2021;15:55:00;0;0.8;31
24.01.2021;16:05:00;0;0.8;30
24.01.2021;16:15:00;0;0.8;0
24.01.2021;16:25:00;0;0.8;0
24.01.2021;16:35:00;0;0.8;0
24.01.2021;16:45:00;0;0.8;0
24.01.2021;16:55:00;0;0.8;0
25.01.2021;10:35:00;100;0;27
25.01.2021;12:05:00;0;0;28
25.01.2021;14:05:00;118;0;29
25.01.2021;14:15:00;112;0;29
25.01.2021;14:25:00;104;0;29
26.01.2021;11:25:00;67;0;27
26.01.2021;11:35:00;87;0;27
26.01.2021;11:45:00;124;0;28
26.01.2021;11:55:00;96;0;28
26.01.2021;12:05:00;142;0;28
26.01.2021;12:15:00;137;0.1;29
26.01.2021;12:25:00;115;0.1;29
26.01.2021;12:35:00;139;0.1;29
26.01.2021;12:45:00;147;0.1;29
26.01.2021;12:55:00;129;0.1;30
26.01.2021;13:05:00;120;0.2;30
26.01.2021;13:15:00;120;0.2;30
26.01.2021;13:25:00;115;0.2;30
26.01.2021;13:35:00;114;0.2;30
26.01.2021;13:45:00;108;0.2;30
26.01.2021;13:55:00;112;0.3;30
26.01.2021;14:05:00;109;0.3;31
26.01.2021;14:15:00;120;0.3;31
26.01.2021;14:25:00;114;0.3;31
26.01.2021;14:35:00;115;0.3;31
26.01.2021;14:45:00;109;0.3;31
26.01.2021;14:55:00;102;0.4;31
26.01.2021;15:05:00;98;0.4;31
26.01.2021;15:15:00;98;0.4;31
26.01.2021;15:25:00;96;0.4;31
26.01.2021;15:35:00;93;0.4;31
26.01.2021;15:45:00;94;0.4;31
26.01.2021;15:55:00;91;0.5;31
26.01.2021;16:05:00;91;0.5;31
26.01.2021;16:15:00;0;0.5;0
26.01.2021;16:25:00;0;0.5;0
26.01.2021;16:35:00;0;0.5;0
28.01.2021;12:30:00;116;0;28
28.01.2021;12:40:00;114;0;28
28.01.2021;12:50:00;105;0;28
28.01.2021;13:00:00;156;0;29
28.01.2021;13:10:00;146;0;29
28.01.2021;13:20:00;124;0.1;29
28.01.2021;13:30:00;136;0.1;29
28.01.2021;13:40:00;152;0.1;30
28.01.2021;13:50:00;157;0.1;30
28.01.2021;14:00:00;142;0.2;30
28.01.2021;14:10:00;142;0.2;30
28.01.2021;14:20:00;153;0.2;30
28.01.2021;14:30:00;132;0.2;31
28.01.2021;14:40:00;129;0.3;31
28.01.2021;14:50:00;174;0.3;31
28.01.2021;15:00:00;187;0.3;31
28.01.2021;15:10:00;173;0.3;31
28.01.2021;15:20:00;178;0.4;31
28.01.2021;15:30:00;164;0.4;31
28.01.2021;15:40:00;197;0.4;31
28.01.2021;15:50:00;152;0.5;31
28.01.2021;16:00:00;149;0.5;31
28.01.2021;16:10:00;144;0.5;31
28.01.2021;16:20:00;144;0.5;31
28.01.2021;16:30:00;130;0.5;31
28.01.2021;16:40:00;137;0.6;32
28.01.2021;16:50:00;122;0.6;32
28.01.2021;17:00:00;115;0.6;32
28.01.2021;17:10:00;93;0.6;32
28.01.2021;17:20:00;90;0.6;32
29.01.2021;08:25:00;137;0;26
29.01.2021;08:35:00;111;0;27
29.01.2021;08:45:00;6;0;28
29.01.2021;08:55:00;135;0;28
29.01.2021;09:05:00;120;0;28
29.01.2021;09:15:00;188;0.1;29
29.01.2021;09:25:00;263;0.1;29
29.01.2021;09:35:00;195;0.1;29
29.01.2021;09:45:00;362;0.2;30
29.01.2021;09:55:00;894;0.3;30
29.01.2021;10:05:00;616;0.4;30
29.01.2021;10:15:00;728;0.5;30
29.01.2021;10:25:00;626;0.6;31
29.01.2021;10:35:00;1037;0.8;31
29.01.2021;10:45:00;744;0.9;31
29.01.2021;10:55:00;802;1.0;31
29.01.2021;11:05:00;874;1.2;31
29.01.2021;11:15:00;554;1.3;31
29.01.2021;11:25:00;831;1.4;31
29.01.2021;11:35:00;837;1.5;32
29.01.2021;11:45:00;2257;1.8;32
29.01.2021;11:55:00;1438;2.1;32
29.01.2021;12:05:00;1215;2.3;32
29.01.2021;12:15:00;535;2.4;32
29.01.2021;12:25:00;1423;2.7;32
29.01.2021;12:35:00;342;2.7;32
29.01.2021;12:45:00;716;2.8;32